Time,TemperatureF,DewpointF,PressureIn,WindDirection,WindDirectionDegrees,WindSpeedMPH,WindSpeedGustMPH,Humidity,HourlyPrecipIn,Conditions,Clouds,dailyrainin,SoftwareType,DateUTC
2013-01-30 00:04:00,39.9,38.0,30.18,ENE,71,2.0,6.0,94,0.00,,,0.00,weatherlink.com 1.10,2013-01-30 05:04:00,
2013-01-30 00:19:00,40.3,39.0,30.18,East,94,5.0,6.0,94,0.00,,,0.00,weatherlink.com 1.10,2013-01-30 05:19:00,
2013-01-30 00:34:00,40.6,39.0,30.16,East,92,6.0,7.0,94,0.00,,,0.00,weatherlink.com 1.10,2013-01-30 05:34:00,
2013-01-30 00:49:00,40.8,39.0,30.15,East,86,7.0,9.0,94,0.00,,,0.00,weatherlink.com 1.10,2013-01-30 05:49:00,
2013-01-30 01:05:00,40.9,39.0,30.14,ESE,123,8.0,10.0,94,0.00,,,0.00,weatherlink.com 1.10,2013-01-30 06:05:00,
2013-01-30 01:20:00,41.0,39.0,30.13,ESE,108,4.0,8.0,94,0.00,,,0.00,weatherlink.com 1.10,2013-01-30 06:20:00,
2013-01-30 01:35:00,41.2,40.0,30.12,East,101,6.0,9.0,94,0.00,,,0.00,weatherlink.com 1.10,2013-01-30 06:35:00,
2013-01-30 01:50:00,41.5,40.0,30.12,East,93,6.0,9.0,94,0.00,,,0.00,weatherlink.com 1.10,2013-01-30 06:50:00,
2013-01-30 02:05:00,41.9,40.0,30.11,East,86,9.0,11.0,94,0.00,,,0.00,weatherlink.com 1.10,2013-01-30 07:05:00,
2013-01-30 02:20:00,42.5,41.0,30.11,ENE,78,5.0,11.0,94,0.00,,,0.00,weatherlink.com 1.10,2013-01-30 07:20:00,
2013-01-30 02:35:00,42.8,41.0,30.10,SE,138,9.0,14.0,94,0.00,,,0.00,weatherlink.com 1.10,2013-01-30 07:35:00,
2013-01-30 02:50:00,42.8,41.0,30.10,East,99,6.0,14.0,94,0.00,,,0.00,weatherlink.com 1.10,2013-01-30 07:50:00,
2013-01-30 03:05:00,42.9,41.0,30.08,East,89,8.0,14.0,94,0.00,,,0.00,weatherlink.com 1.10,2013-01-30 08:05:00,
2013-01-30 03:20:00,43.1,42.0,30.07,East,80,8.0,13.0,94,0.00,,,0.00,weatherlink.com 1.10,2013-01-30 08:20:00,
2013-01-30 03:35:00,43.1,42.0,30.06,East,83,7.0,13.0,94,0.00,,,0.00,weatherlink.com 1.10,2013-01-30 08:35:00,
2013-01-30 03:50:00,43.1,42.0,30.06,East,88,5.0,12.0,94,0.00,,,0.00,weatherlink.com 1.10,2013-01-30 08:50:00,
2013-01-30 04:05:00,43.0,41.0,30.06,ENE,59,5.0,11.0,94,0.00,,,0.00,weatherlink.com 1.10,2013-01-30 09:05:00,
2013-01-30 04:20:00,43.4,42.0,30.05,East,90,8.0,10.0,94,0.00,,,0.00,weatherlink.com 1.10,2013-01-30 09:20:00,
2013-01-30 04:35:00,43.7,42.0,30.04,ESE,115,9.0,10.0,95,0.00,,,0.00,weatherlink.com 1.10,2013-01-30 09:35:00,
2013-01-30 04:50:00,44.1,43.0,30.03,East,83,9.0,10.0,94,0.00,,,0.00,weatherlink.com 1.10,2013-01-30 09:50:00,
2013-01-30 05:05:00,43.8,42.0,30.02,East,96,10.0,12.0,94,0.00,,,0.00,weatherlink.com 1.10,2013-01-30 10:05:00,
2013-01-30 05:20:00,44.0,42.0,30.02,ESE,118,5.0,12.0,94,0.00,,,0.00,weatherlink.com 1.10,2013-01-30 10:20:00,
2013-01-30 05:35:00,44.4,43.0,30.01,ESE,104,8.0,11.0,95,0.00,,,0.00,weatherlink.com 1.10,2013-01-30 10:35:00,
2013-01-30 05:50:00,44.7,43.0,30.01,ESE,107,7.0,11.0,95,0.00,,,0.00,weatherlink.com 1.10,2013-01-30 10:50:00,
2013-01-30 06:05:00,46.0,45.0,30.01,ESE,116,8.0,16.0,95,0.00,,,0.00,weatherlink.com 1.10,2013-01-30 11:05:00,
2013-01-30 06:20:00,47.0,46.0,30.00,SE,140,10.0,16.0,95,0.00,,,0.00,weatherlink.com 1.10,2013-01-30 11:20:00,
2013-01-30 06:35:00,47.1,46.0,30.00,SE,133,9.0,17.0,95,0.00,,,0.00,weatherlink.com 1.10,2013-01-30 11:35:00,
2013-01-30 06:50:00,46.9,46.0,30.00,SE,137,8.0,14.0,95,0.00,,,0.00,weatherlink.com 1.10,2013-01-30 11:50:00,
2013-01-30 07:05:00,46.7,45.0,29.99,ESE,118,9.0,16.0,95,0.00,,,0.00,weatherlink.com 1.10,2013-01-30 12:05:00,
2013-01-30 07:21:00,-999.0,-99.9,29.99,SSE,151,5.0,13.0,-999,0.00,,,0.00,weatherlink.com 1.10,2013-01-30 12:21:00,
2013-01-30 07:36:00,-999.0,-99.9,29.98,SSE,162,8.0,10.0,-999,0.00,,,0.00,weatherlink.com 1.10,2013-01-30 12:36:00,
2013-01-30 07:51:00,-999.0,-99.9,29.97,SE,134,8.0,12.0,-999,0.00,,,0.00,weatherlink.com 1.10,2013-01-30 12:51:00,
2013-01-30 08:06:00,-999.0,-99.9,29.96,SSE,168,9.0,15.0,-999,0.00,,,0.00,weatherlink.com 1.10,2013-01-30 13:06:00,
2013-01-30 08:21:00,-999.0,-99.9,29.96,SSE,155,10.0,15.0,-999,0.00,,,0.00,weatherlink.com 1.10,2013-01-30 13:21:00,
2013-01-30 08:36:00,-999.0,-99.9,29.95,South,171,11.0,18.0,-999,0.00,,,0.00,weatherlink.com 1.10,2013-01-30 13:36:00,
2013-01-30 08:51:00,-999.0,-99.9,29.94,SSE,163,12.0,22.0,-999,0.00,,,0.00,weatherlink.com 1.10,2013-01-30 13:51:00,
2013-01-30 09:06:00,-999.0,-99.9,29.93,SSE,159,17.0,21.0,-999,0.00,,,0.00,weatherlink.com 1.10,2013-01-30 14:06:00,
2013-01-30 09:21:00,-999.0,-99.9,29.92,SSW,193,11.0,20.0,-999,0.00,,,0.00,weatherlink.com 1.10,2013-01-30 14:21:00,
2013-01-30 09:36:00,-999.0,-99.9,29.92,South,182,19.0,24.0,-999,0.00,,,0.00,weatherlink.com 1.10,2013-01-30 14:36:00,
2013-01-30 09:51:00,-999.0,-99.9,29.92,South,181,22.0,28.0,-999,0.00,,,0.00,weatherlink.com 1.10,2013-01-30 14:51:00,
2013-01-30 10:06:00,-999.0,-99.9,29.91,South,173,19.0,25.0,-999,0.00,,,0.00,weatherlink.com 1.10,2013-01-30 15:06:00,
2013-01-30 10:21:00,-999.0,-99.9,29.91,SSE,167,14.0,24.0,-999,0.00,,,0.00,weatherlink.com 1.10,2013-01-30 15:21:00,
2013-01-30 10:37:00,-999.0,-99.9,29.89,SSE,162,19.0,25.0,-999,0.00,,,0.00,weatherlink.com 1.10,2013-01-30 15:37:00,
2013-01-30 10:52:00,-999.0,-99.9,29.88,SSE,158,12.0,23.0,-999,0.00,,,0.00,weatherlink.com 1.10,2013-01-30 15:52:00,
2013-01-30 11:07:00,-999.0,-99.9,29.87,South,173,15.0,26.0,-999,0.00,,,0.00,weatherlink.com 1.10,2013-01-30 16:07:00,
2013-01-30 11:22:00,-999.0,-99.9,29.86,South,173,13.0,31.0,-999,0.00,,,0.00,weatherlink.com 1.10,2013-01-30 16:22:00,
2013-01-30 11:37:00,-999.0,-99.9,29.85,South,175,18.0,23.0,-999,0.00,,,0.00,weatherlink.com 1.10,2013-01-30 16:37:00,
2013-01-30 11:52:00,-999.0,-99.9,29.84,WSW,239,6.0,19.0,-999,0.00,,,0.00,weatherlink.com 1.10,2013-01-30 16:52:00,
2013-01-30 12:07:00,-999.0,-99.9,29.83,SW,219,3.0,12.0,-999,0.00,,,0.00,weatherlink.com 1.10,2013-01-30 17:07:00,
2013-01-30 12:22:00,-999.0,-99.9,29.82,SSW,196,9.0,12.0,-999,0.00,,,0.00,weatherlink.com 1.10,2013-01-30 17:22:00,
2013-01-30 12:37:00,-999.0,-99.9,29.81,SSW,198,13.0,17.0,-999,0.00,,,0.00,weatherlink.com 1.10,2013-01-30 17:37:00,
2013-01-30 12:52:00,-999.0,-99.9,29.80,SSW,196,13.0,15.0,-999,0.00,,,0.00,weatherlink.com 1.10,2013-01-30 17:52:00,
2013-01-30 13:07:00,-999.0,-99.9,29.79,SSW,202,10.0,17.0,-999,0.00,,,0.00,weatherlink.com 1.10,2013-01-30 18:07:00,
2013-01-30 13:22:00,-999.0,-99.9,29.78,SSW,209,17.0,27.0,-999,0.00,,,0.00,weatherlink.com 1.10,2013-01-30 18:22:00,
2013-01-30 13:37:00,-999.0,-99.9,29.79,SW,225,21.0,23.0,-999,0.00,,,0.00,weatherlink.com 1.10,2013-01-30 18:37:00,
2013-01-30 13:52:00,53.5,51.0,29.79,SW,219,20.0,26.0,92,0.00,,,0.00,weatherlink.com 1.10,2013-01-30 18:52:00,
2013-01-30 14:07:00,52.6,50.0,29.78,WSW,240,9.0,20.0,92,0.00,,,0.00,weatherlink.com 1.10,2013-01-30 19:07:00,
2013-01-30 14:22:00,52.2,50.0,29.79,WSW,251,13.0,18.0,93,0.00,,,0.00,weatherlink.com 1.10,2013-01-30 19:22:00,
2013-01-30 14:37:00,51.2,50.0,29.78,SW,217,14.0,21.0,94,0.00,,,0.00,weatherlink.com 1.10,2013-01-30 19:37:00,
2013-01-30 14:53:00,51.2,50.0,29.77,SSW,209,13.0,18.0,95,0.00,,,0.00,weatherlink.com 1.10,2013-01-30 19:53:00,
2013-01-30 15:08:00,51.2,50.0,29.76,South,190,14.0,22.0,95,0.00,,,0.00,weatherlink.com 1.10,2013-01-30 20:08:00,
2013-01-30 15:23:00,50.8,50.0,29.76,SSW,201,11.0,18.0,95,0.00,,,0.00,weatherlink.com 1.10,2013-01-30 20:23:00,
2013-01-30 15:38:00,51.0,50.0,29.75,SSW,197,11.0,21.0,95,0.00,,,0.00,weatherlink.com 1.10,2013-01-30 20:38:00,
2013-01-30 15:53:00,50.8,50.0,29.75,SW,215,14.0,20.0,95,0.00,,,0.00,weatherlink.com 1.10,2013-01-30 20:53:00,
2013-01-30 16:08:00,50.6,49.0,29.74,SSW,196,10.0,17.0,95,0.00,,,0.00,weatherlink.com 1.10,2013-01-30 21:08:00,
2013-01-30 16:23:00,51.2,50.0,29.74,South,186,11.0,17.0,95,0.00,,,0.00,weatherlink.com 1.10,2013-01-30 21:23:00,
2013-01-30 16:38:00,51.5,50.0,29.74,SW,218,10.0,16.0,96,0.00,,,0.00,weatherlink.com 1.10,2013-01-30 21:38:00,
2013-01-30 16:53:00,51.7,50.0,29.74,SSW,201,9.0,20.0,95,0.00,,,0.00,weatherlink.com 1.10,2013-01-30 21:53:00,
2013-01-30 17:08:00,51.8,51.0,29.74,WSW,238,22.0,25.0,95,0.00,,,0.00,weatherlink.com 1.10,2013-01-30 22:08:00,
2013-01-30 17:23:00,52.1,51.0,29.73,SSW,200,17.0,25.0,95,0.00,,,0.00,weatherlink.com 1.10,2013-01-30 22:23:00,
2013-01-30 17:38:00,52.1,51.0,29.73,West,265,16.0,23.0,95,0.00,,,0.00,weatherlink.com 1.10,2013-01-30 22:38:00,
2013-01-30 17:53:00,52.1,51.0,29.72,SSW,212,12.0,25.0,95,0.00,,,0.00,weatherlink.com 1.10,2013-01-30 22:53:00,
2013-01-30 18:08:00,51.7,50.0,29.71,SW,225,17.0,25.0,95,0.00,,,0.00,weatherlink.com 1.10,2013-01-30 23:08:00,
2013-01-30 18:23:00,51.7,50.0,29.70,SSW,211,14.0,28.0,95,0.00,,,0.00,weatherlink.com 1.10,2013-01-30 23:23:00,
2013-01-30 18:38:00,51.9,51.0,29.69,SSE,168,16.0,29.0,95,0.00,,,0.00,weatherlink.com 1.10,2013-01-30 23:38:00,
2013-01-30 18:53:00,51.4,50.0,29.69,SSE,162,24.0,27.0,95,0.00,,,0.00,weatherlink.com 1.10,2013-01-30 23:53:00,
2013-01-30 19:08:00,52.1,51.0,29.68,South,190,23.0,30.0,95,0.00,,,0.00,weatherlink.com 1.10,2013-01-31 00:08:00,
2013-01-30 19:23:00,53.3,52.0,29.68,South,188,17.0,35.0,95,0.00,,,0.00,weatherlink.com 1.10,2013-01-31 00:23:00,
2013-01-30 19:38:00,53.3,52.0,29.66,South,177,23.0,38.0,95,0.00,,,0.00,weatherlink.com 1.10,2013-01-31 00:38:00,
2013-01-30 19:53:00,53.1,52.0,29.66,SSW,194,21.0,30.0,95,0.00,,,0.00,weatherlink.com 1.10,2013-01-31 00:53:00,
2013-01-30 20:08:00,53.1,52.0,29.65,South,174,23.0,31.0,95,0.00,,,0.00,weatherlink.com 1.10,2013-01-31 01:08:00,
2013-01-30 20:23:00,52.7,51.0,29.65,South,189,19.0,32.0,94,0.00,,,0.00,weatherlink.com 1.10,2013-01-31 01:23:00,
2013-01-30 20:38:00,52.1,51.0,29.64,SSW,213,16.0,32.0,94,0.00,,,0.00,weatherlink.com 1.10,2013-01-31 01:38:00,
2013-01-30 20:53:00,51.7,50.0,29.65,SW,232,19.0,31.0,94,0.00,,,0.00,weatherlink.com 1.10,2013-01-31 01:53:00,
2013-01-30 21:08:00,51.0,49.0,29.64,SW,227,19.0,22.0,93,0.00,,,0.00,weatherlink.com 1.10,2013-01-31 02:08:00,
2013-01-30 21:23:00,50.7,49.0,29.63,SSW,209,19.0,24.0,94,0.00,,,0.00,weatherlink.com 1.10,2013-01-31 02:23:00,
2013-01-30 21:38:00,51.5,50.0,29.62,SW,228,14.0,26.0,95,0.00,,,0.00,weatherlink.com 1.10,2013-01-31 02:38:00,
2013-01-30 21:53:00,51.6,50.0,29.61,SW,235,13.0,26.0,94,0.00,,,0.00,weatherlink.com 1.10,2013-01-31 02:53:00,
2013-01-30 22:08:00,51.7,50.0,29.61,South,190,24.0,25.0,94,0.00,,,0.00,weatherlink.com 1.10,2013-01-31 03:08:00,
2013-01-30 22:23:00,52.6,51.0,29.60,South,190,18.0,26.0,94,0.00,,,0.00,weatherlink.com 1.10,2013-01-31 03:23:00,
2013-01-30 22:38:00,53.6,51.0,29.58,South,184,19.0,36.0,92,0.00,,,0.00,weatherlink.com 1.10,2013-01-31 03:38:00,
2013-01-30 22:53:00,52.8,50.0,29.57,South,174,22.0,35.0,91,0.00,,,0.00,weatherlink.com 1.10,2013-01-31 03:53:00,
2013-01-30 23:08:00,51.8,50.0,29.57,South,188,27.0,32.0,92,0.00,,,0.00,weatherlink.com 1.10,2013-01-31 04:08:00,
2013-01-30 23:23:00,51.0,49.0,29.55,South,185,19.0,32.0,93,0.00,,,0.00,weatherlink.com 1.10,2013-01-31 04:23:00,
2013-01-30 23:38:00,49.9,48.0,29.54,SSE,165,20.0,28.0,94,0.00,,,0.00,weatherlink.com 1.10,2013-01-31 04:38:00,
2013-01-30 23:53:00,49.8,48.0,29.53,South,177,25.0,29.0,94,0.00,,,0.00,weatherlink.com 1.10,2013-01-31 04:53:00,